,,,PA_Meas_PMT16A,,PR_Meas_QMR101_102,,RH_Meas_QMH101,,SR_Meas_QMS101,,TA_Meas_QMH101,,GenWind,,GenWind,
date,time,status,PA,status,PR,status,RH,status,SR,status,TA,status,DirAvg,status,SpdAvg,
2009-05-15, 00:00:04,VALID,1003.05,VALID,0,VALID,89.4181,VALID,0.100563,VALID,24.5406,VALID,91,VALID,0,
2009-05-15, 00:01:04,VALID,1003.04,VALID,0,VALID,89.7156,VALID,0.100563,VALID,24.4998,VALID,91,VALID,0,
2009-05-15, 00:02:04,VALID,1003.04,VALID,0,VALID,89.9445,VALID,0.100563,VALID,24.4414,VALID,91,VALID,0,
2009-05-15, 00:03:04,VALID,1002.98,VALID,0,VALID,90.1123,VALID,0.100563,VALID,24.422,VALID,91,VALID,0,
2009-05-15, 00:04:04,VALID,1003.01,VALID,0,VALID,90.2802,VALID,0.100563,VALID,24.3636,VALID,91,VALID,0.0765625,
2009-05-15, 00:05:04,VALID,1003.01,VALID,0,VALID,90.5396,VALID,0.100563,VALID,24.3441,VALID,91,VALID,0.108984,
2009-05-15, 00:06:04,VALID,1002.98,VALID,0,VALID,90.7074,VALID,0,VALID,24.3265,VALID,91,VALID,0.0515625,
2009-05-15, 00:07:04,VALID,1002.98,VALID,0,VALID,90.8218,VALID,0,VALID,24.2662,VALID,91,VALID,0.0835937,
2009-05-15, 00:08:04,VALID,1003,VALID,0,VALID,90.982,VALID,0,VALID,24.2273,VALID,91,VALID,0.194922,
2009-05-15, 00:09:04,VALID,1002.99,VALID,0,VALID,91.0888,VALID,0,VALID,24.1884,VALID,91,VALID,0.0183594,
2009-05-15, 00:10:04,VALID,1003.01,VALID,0,VALID,91.1956,VALID,0.100563,VALID,24.2097,VALID,91,VALID,0,
2009-05-15, 00:11:04,VALID,1003.03,VALID,0,VALID,91.3177,VALID,0,VALID,24.1494,VALID,91,VALID,0,
2009-05-15, 00:12:04,VALID,1003.02,VALID,0,VALID,91.4016,VALID,0,VALID,24.13,VALID,91,VALID,0,
2009-05-15, 00:13:04,VALID,1003.05,VALID,0,VALID,91.4932,VALID,0.100563,VALID,24.13,VALID,91,VALID,0.108594,
2009-05-15, 00:14:04,VALID,1003.01,VALID,0,VALID,91.5847,VALID,0,VALID,24.1123,VALID,91,VALID,0.113672,
2009-05-15, 00:15:04,VALID,1003.01,VALID,0,VALID,91.6991,VALID,0,VALID,24.0716,VALID,91,VALID,0.136328,
2009-05-15, 00:16:04,VALID,1003.02,VALID,0,VALID,91.8822,VALID,0.100563,VALID,24.0716,VALID,64,VALID,0.323828,
2009-05-15, 00:17:04,VALID,1003.03,VALID,0,VALID,91.9433,VALID,0,VALID,24.0521,VALID,64,VALID,0.26875,
2009-05-15, 00:18:04,VALID,1003,VALID,0,VALID,92.1111,VALID,0,VALID,24.0716,VALID,64,VALID,0.304297,
2009-05-15, 00:19:04,VALID,1003.04,VALID,0,VALID,92.2408,VALID,0,VALID,24.0716,VALID,64,VALID,0.378125,
2009-05-15, 00:20:04,VALID,1003.03,VALID,0,VALID,92.2637,VALID,0,VALID,24.0734,VALID,58,VALID,0.389844,
2009-05-15, 00:21:04,VALID,1003.04,VALID,0,VALID,92.3323,VALID,0,VALID,24.0716,VALID,28,VALID,0.351953,
2009-05-15, 00:22:04,VALID,1003.05,VALID,0,VALID,92.401,VALID,0,VALID,24.0326,VALID,28,VALID,0.277344,
2009-05-15, 00:23:04,VALID,1003.03,VALID,0,VALID,92.5154,VALID,0.100563,VALID,24.0539,VALID,28,VALID,0.381641,
2009-05-15, 00:24:04,VALID,1003.04,VALID,0,VALID,92.546,VALID,0,VALID,24.0326,VALID,28,VALID,0.373828,
2009-05-15, 00:25:04,VALID,1003.03,VALID,0,VALID,92.546,VALID,0.100563,VALID,24.0132,VALID,28,VALID,0.207031,
2009-05-15, 00:26:04,VALID,1003,VALID,0,VALID,92.5765,VALID,0,VALID,24.015,VALID,28,VALID,0.179688,
2009-05-15, 00:27:04,VALID,1002.97,VALID,0,VALID,92.607,VALID,0,VALID,23.9955,VALID,28,VALID,0,
2009-05-15, 00:28:04,VALID,1002.95,VALID,0,VALID,92.6375,VALID,0.100563,VALID,23.9742,VALID,28,VALID,0,
2009-05-15, 00:29:04,VALID,1002.97,VALID,0,VALID,92.7519,VALID,0.100563,VALID,23.9353,VALID,28,VALID,0,
2009-05-15, 00:30:04,VALID,1002.95,VALID,0,VALID,92.8664,VALID,0,VALID,23.9742,VALID,28,VALID,0,
2009-05-15, 00:31:04,VALID,1002.93,VALID,0,VALID,92.9808,VALID,0,VALID,23.9548,VALID,28,VALID,0,
2009-05-15, 00:32:04,VALID,1002.93,VALID,0,VALID,93.0342,VALID,0,VALID,23.9548,VALID,28,VALID,0,
2009-05-15, 00:33:04,VALID,1002.92,VALID,0,VALID,93.0647,VALID,0.100563,VALID,23.9937,VALID,28,VALID,0,
2009-05-15, 00:34:04,VALID,1002.91,VALID,0,VALID,93.1029,VALID,0,VALID,23.9742,VALID,28,VALID,0,
2009-05-15, 00:35:04,VALID,1002.93,VALID,0,VALID,93.1639,VALID,0,VALID,23.9742,VALID,28,VALID,0,
2009-05-15, 00:36:04,VALID,1002.93,VALID,0,VALID,93.1639,VALID,0.100563,VALID,23.9742,VALID,28,VALID,0,
2009-05-15, 00:37:04,VALID,1002.91,VALID,0,VALID,93.1791,VALID,0,VALID,23.9548,VALID,28,VALID,0,
2009-05-15, 00:38:04,VALID,1002.9,VALID,0,VALID,93.1868,VALID,0,VALID,23.9353,VALID,28,VALID,0.110547,
2009-05-15, 00:39:04,VALID,1002.9,VALID,0,VALID,93.2783,VALID,0,VALID,23.9353,VALID,28,VALID,0.201172,
2009-05-15, 00:40:04,VALID,1002.91,VALID,0,VALID,93.2936,VALID,0.100563,VALID,23.9159,VALID,28,VALID,0,
2009-05-15, 00:41:04,VALID,1002.92,VALID,0,VALID,93.3165,VALID,0,VALID,23.9159,VALID,28,VALID,0.391016,
2009-05-15, 00:42:04,VALID,1002.9,VALID,0,VALID,93.3012,VALID,0,VALID,23.8982,VALID,28,VALID,0.280859,
2009-05-15, 00:43:04,VALID,1002.92,VALID,0,VALID,93.2936,VALID,0,VALID,23.8593,VALID,28,VALID,0.244922,
2009-05-15, 00:44:04,VALID,1002.89,VALID,0,VALID,93.3317,VALID,0,VALID,23.8398,VALID,28,VALID,0.0484375,
2009-05-15, 00:45:04,VALID,1002.88,VALID,0,VALID,93.3317,VALID,0,VALID,23.8009,VALID,28,VALID,0,
2009-05-15, 00:46:04,VALID,1002.89,VALID,0,VALID,93.4004,VALID,0,VALID,23.8009,VALID,28,VALID,0,
2009-05-15, 00:47:04,VALID,1002.87,VALID,0,VALID,93.4309,VALID,0,VALID,23.7814,VALID,28,VALID,0,
2009-05-15, 00:48:04,VALID,1002.86,VALID,0,VALID,93.5301,VALID,0,VALID,23.8009,VALID,28,VALID,0.136719,
2009-05-15, 00:49:04,VALID,1002.85,VALID,0,VALID,93.6216,VALID,0,VALID,23.8009,VALID,28,VALID,0.0429688,
2009-05-15, 00:50:04,VALID,1002.86,VALID,0,VALID,93.6292,VALID,0,VALID,23.7796,VALID,28,VALID,0,
2009-05-15, 00:51:04,VALID,1002.82,VALID,0,VALID,93.6598,VALID,0,VALID,23.8027,VALID,28,VALID,0,
2009-05-15, 00:52:04,VALID,1002.81,VALID,0,VALID,93.6369,VALID,0,VALID,23.7619,VALID,30,VALID,0.252734,
2009-05-15, 00:53:04,VALID,1002.81,VALID,0,VALID,93.6826,VALID,0,VALID,23.7637,VALID,31,VALID,0.453906,
2009-05-15, 00:54:04,VALID,1002.76,VALID,0,VALID,93.7513,VALID,0,VALID,23.723,VALID,31,VALID,0.38125,
2009-05-15, 00:55:04,VALID,1002.74,VALID,0,VALID,93.8657,VALID,0,VALID,23.7832,VALID,49,VALID,0.445313,
2009-05-15, 00:56:04,VALID,1002.68,VALID,0,VALID,93.9725,VALID,0,VALID,23.8009,VALID,54,VALID,0.252734,
2009-05-15, 00:57:04,VALID,1002.61,VALID,0,VALID,94.0183,VALID,0.100563,VALID,23.7973,VALID,54,VALID,0.194531,
2009-05-15, 00:58:04,VALID,1002.63,VALID,0,VALID,94.0107,VALID,0.100563,VALID,23.7991,VALID,54,VALID,0.00429688,
2009-05-15, 00:59:05,VALID,1002.62,VALID,0,VALID,93.9954,VALID,0.100563,VALID,23.7991,VALID,54,VALID,0.135156,
2009-05-15, 01:00:05,VALID,1002.63,VALID,0,VALID,93.9878,VALID,0.100563,VALID,23.7991,VALID,54,VALID,0.0890625,
2009-05-15, 01:01:05,VALID,1002.63,VALID,0,VALID,94.0794,VALID,0.100563,VALID,23.7991,VALID,54,VALID,0.339453,
2009-05-15, 01:02:05,VALID,1002.62,VALID,0,VALID,94.1175,VALID,0.100563,VALID,23.8398,VALID,54,VALID,0.10625,
2009-05-15, 01:03:05,VALID,1002.62,VALID,0,VALID,94.1099,VALID,0.100563,VALID,23.7973,VALID,54,VALID,0.195313,
2009-05-15, 01:04:05,VALID,1002.6,VALID,0,VALID,94.0794,VALID,0,VALID,23.7991,VALID,54,VALID,0,
2009-05-15, 01:05:05,VALID,1002.59,VALID,0,VALID,94.0565,VALID,0.100563,VALID,23.7778,VALID,54,VALID,0,
2009-05-15, 01:06:05,VALID,1002.59,VALID,0,VALID,94.0412,VALID,0.100563,VALID,23.7583,VALID,54,VALID,0,
2009-05-15, 01:07:05,VALID,1002.55,VALID,0,VALID,94.0412,VALID,0.100563,VALID,23.7601,VALID,54,VALID,0,
2009-05-15, 01:08:05,VALID,1002.49,VALID,0,VALID,94.0336,VALID,0.100563,VALID,23.7407,VALID,54,VALID,0.06875,
2009-05-15, 01:09:05,VALID,1002.48,VALID,0,VALID,94.0946,VALID,0.100563,VALID,23.7212,VALID,54,VALID,0.223438,
2009-05-15, 01:10:05,VALID,1002.44,VALID,0,VALID,94.1633,VALID,0.100563,VALID,23.7407,VALID,54,VALID,0.0679687,
2009-05-15, 01:11:05,VALID,1002.44,VALID,0,VALID,94.1862,VALID,0.100563,VALID,23.7407,VALID,54,VALID,0.170703,
2009-05-15, 01:12:05,VALID,1002.42,VALID,0,VALID,94.1938,VALID,0,VALID,23.7425,VALID,54,VALID,0.309766,
2009-05-15, 01:13:05,VALID,1002.41,VALID,0,VALID,94.2319,VALID,0,VALID,23.7017,VALID,54,VALID,0.292969,
2009-05-15, 01:14:05,VALID,1002.39,VALID,0,VALID,94.2777,VALID,0,VALID,23.7425,VALID,53,VALID,0.245312,
2009-05-15, 01:15:05,VALID,1002.4,VALID,0,VALID,94.2014,VALID,0,VALID,23.723,VALID,53,VALID,0.171484,
2009-05-15, 01:16:05,VALID,1002.41,VALID,0,VALID,94.1556,VALID,0,VALID,23.6628,VALID,53,VALID,0.0234375,
2009-05-15, 01:17:05,VALID,1002.41,VALID,0,VALID,94.1938,VALID,0,VALID,23.6646,VALID,53,VALID,0.00195313,
2009-05-15, 01:18:05,VALID,1002.42,VALID,0,VALID,94.2167,VALID,0,VALID,23.6646,VALID,53,VALID,0,
2009-05-15, 01:19:05,VALID,1002.43,VALID,0,VALID,94.2319,VALID,0,VALID,23.6452,VALID,53,VALID,0.168359,
2009-05-15, 01:20:05,VALID,1002.44,VALID,0,VALID,94.2777,VALID,0,VALID,23.6646,VALID,53,VALID,0.0855469,
2009-05-15, 01:21:05,VALID,1002.44,VALID,0,VALID,94.3845,VALID,0,VALID,23.6841,VALID,53,VALID,0.0355469,
2009-05-15, 01:22:05,VALID,1002.4,VALID,0,VALID,94.4913,VALID,0,VALID,23.7619,VALID,53,VALID,0,
2009-05-15, 01:23:05,VALID,1002.38,VALID,0,VALID,94.5829,VALID,0,VALID,23.8185,VALID,53,VALID,0.0652344,
2009-05-15, 01:24:05,VALID,1002.36,VALID,0,VALID,94.621,VALID,0,VALID,23.8787,VALID,53,VALID,0,
2009-05-15, 01:25:05,VALID,1002.32,VALID,0,VALID,94.6744,VALID,0,VALID,23.9177,VALID,53,VALID,0.0328125,
2009-05-15, 01:26:05,VALID,1002.31,VALID,0,VALID,94.6057,VALID,0,VALID,23.9371,VALID,53,VALID,0,
2009-05-15, 01:27:05,VALID,1002.29,VALID,0,VALID,94.5295,VALID,0,VALID,23.8982,VALID,53,VALID,0,
2009-05-15, 01:28:05,VALID,1002.3,VALID,0,VALID,94.4837,VALID,0,VALID,23.8787,VALID,53,VALID,0,
2009-05-15, 01:29:05,VALID,1002.28,VALID,0,VALID,94.4989,VALID,0,VALID,23.8593,VALID,53,VALID,0,
2009-05-15, 01:30:05,VALID,1002.31,VALID,0,VALID,94.4761,VALID,0,VALID,23.8398,VALID,53,VALID,0,
2009-05-15, 01:31:05,VALID,1002.27,VALID,0,VALID,94.4989,VALID,0,VALID,23.8398,VALID,53,VALID,0.0304688,
2009-05-15, 01:32:05,VALID,1002.25,VALID,0,VALID,94.5523,VALID,0.100563,VALID,23.838,VALID,53,VALID,0,
2009-05-15, 01:33:05,VALID,1002.25,VALID,0,VALID,94.6286,VALID,0,VALID,23.8575,VALID,53,VALID,0.203516,
2009-05-15, 01:34:05,VALID,1002.23,VALID,0,VALID,94.6286,VALID,0,VALID,23.8982,VALID,53,VALID,0.347266,
2009-05-15, 01:35:05,VALID,1002.16,VALID,0,VALID,94.6668,VALID,0,VALID,23.8982,VALID,53,VALID,0.296484,
2009-05-15, 01:36:05,VALID,1002.17,VALID,0,VALID,94.6363,VALID,0,VALID,23.8982,VALID,53,VALID,0.339453,
2009-05-15, 01:37:05,VALID,1002.15,VALID,0,VALID,94.6286,VALID,0,VALID,23.8787,VALID,53,VALID,0.217187,
2009-05-15, 01:38:05,VALID,1002.14,VALID,0,VALID,94.6515,VALID,0,VALID,23.8982,VALID,53,VALID,0.0761719,
2009-05-15, 01:39:05,VALID,1002.12,VALID,0,VALID,94.7049,VALID,0,VALID,23.9371,VALID,53,VALID,0.305859,
2009-05-15, 01:40:05,VALID,1002.11,VALID,0,VALID,94.6515,VALID,0,VALID,23.9177,VALID,53,VALID,0.210938,
2009-05-15, 01:41:05,VALID,1002.08,VALID,0,VALID,94.6591,VALID,0,VALID,23.9177,VALID,53,VALID,0.141797,
2009-05-15, 01:42:05,VALID,1002.1,VALID,0,VALID,94.7049,VALID,0,VALID,23.9177,VALID,53,VALID,0.0171875,
2009-05-15, 01:43:05,VALID,1002.1,VALID,0,VALID,94.6973,VALID,0,VALID,23.9177,VALID,53,VALID,0,
2009-05-15, 01:44:05,VALID,1002.09,VALID,0,VALID,94.6973,VALID,0,VALID,23.8964,VALID,53,VALID,0,
2009-05-15, 01:45:05,VALID,1002.08,VALID,0,VALID,94.7278,VALID,0,VALID,23.9389,VALID,53,VALID,0.133203,
2009-05-15, 01:46:05,VALID,1002.07,VALID,0,VALID,94.7049,VALID,0,VALID,23.9177,VALID,53,VALID,0.147266,
2009-05-15, 01:47:05,VALID,1002.06,VALID,0,VALID,94.7202,VALID,0,VALID,23.9177,VALID,53,VALID,0.263672,
2009-05-15, 01:48:05,VALID,1002.04,VALID,0,VALID,94.6134,VALID,0,VALID,23.8805,VALID,53,VALID,0.271484,
2009-05-15, 01:49:05,VALID,1002.01,VALID,0,VALID,94.4913,VALID,0,VALID,23.8203,VALID,53,VALID,0.279687,
2009-05-15, 01:50:05,VALID,1002,VALID,0,VALID,94.4684,VALID,0,VALID,23.7619,VALID,53,VALID,0.207031,
2009-05-15, 01:51:05,VALID,1001.97,VALID,0,VALID,94.621,VALID,0,VALID,23.7832,VALID,53,VALID,0,
2009-05-15, 01:52:05,VALID,1001.93,VALID,0,VALID,94.6591,VALID,0,VALID,23.7619,VALID,53,VALID,0,
2009-05-15, 01:53:05,VALID,1001.94,VALID,0,VALID,94.6668,VALID,0,VALID,23.7619,VALID,53,VALID,0,
2009-05-15, 01:54:05,VALID,1001.89,VALID,0,VALID,94.6363,VALID,0,VALID,23.7425,VALID,53,VALID,0,
2009-05-15, 01:55:05,VALID,1001.9,VALID,0,VALID,94.682,VALID,0,VALID,23.7619,VALID,53,VALID,0,
2009-05-15, 01:56:05,VALID,1001.89,VALID,0,VALID,94.6439,VALID,0,VALID,23.7637,VALID,53,VALID,0,
2009-05-15, 01:57:05,VALID,1001.85,VALID,0,VALID,94.6897,VALID,0,VALID,23.7619,VALID,53,VALID,0,
2009-05-15, 01:58:05,VALID,1001.83,VALID,0,VALID,94.7202,VALID,0,VALID,23.7619,VALID,53,VALID,0,
2009-05-15, 01:59:05,VALID,1001.84,VALID,0,VALID,94.8041,VALID,0,VALID,23.8009,VALID,53,VALID,0,
2009-05-15, 02:00:05,VALID,1001.83,VALID,0,VALID,94.7354,VALID,0,VALID,23.7814,VALID,53,VALID,0,
2009-05-15, 02:01:05,VALID,1001.81,VALID,0,VALID,94.766,VALID,0,VALID,23.7814,VALID,53,VALID,0,
2009-05-15, 02:02:05,VALID,1001.82,VALID,0,VALID,94.7736,VALID,0,VALID,23.8009,VALID,53,VALID,0,
2009-05-15, 02:03:05,VALID,1001.78,VALID,0,VALID,94.682,VALID,0,VALID,23.7619,VALID,53,VALID,0,
2009-05-15, 02:04:05,VALID,1001.82,VALID,0,VALID,94.6515,VALID,0,VALID,23.7619,VALID,53,VALID,0,
2009-05-15, 02:05:05,VALID,1001.76,VALID,0,VALID,94.6286,VALID,0,VALID,23.723,VALID,53,VALID,0,
2009-05-15, 02:06:05,VALID,1001.79,VALID,0,VALID,94.5981,VALID,0,VALID,23.6841,VALID,53,VALID,0,
2009-05-15, 02:07:05,VALID,1001.77,VALID,0,VALID,94.6515,VALID,0,VALID,23.6841,VALID,53,VALID,0,
2009-05-15, 02:08:05,VALID,1001.79,VALID,0,VALID,94.7507,VALID,0,VALID,23.7035,VALID,53,VALID,0,
2009-05-15, 02:09:05,VALID,1001.82,VALID,0,VALID,94.7812,VALID,0,VALID,23.7017,VALID,53,VALID,0,
2009-05-15, 02:10:05,VALID,1001.81,VALID,0,VALID,94.7888,VALID,0,VALID,23.723,VALID,53,VALID,0,
2009-05-15, 02:11:05,VALID,1001.82,VALID,0,VALID,94.8575,VALID,0,VALID,23.7425,VALID,53,VALID,0,
2009-05-15, 02:12:05,VALID,1001.83,VALID,0,VALID,94.8651,VALID,0,VALID,23.8009,VALID,53,VALID,0,
2009-05-15, 02:13:05,VALID,1001.82,VALID,0,VALID,94.8499,VALID,0,VALID,23.8009,VALID,53,VALID,0,
2009-05-15, 02:14:05,VALID,1001.8,VALID,0,VALID,94.8346,VALID,0,VALID,23.7796,VALID,53,VALID,0,
2009-05-15, 02:15:05,VALID,1001.81,VALID,0,VALID,94.8194,VALID,0,VALID,23.8027,VALID,53,VALID,0,
2009-05-15, 02:16:05,VALID,1001.8,VALID,0,VALID,94.8194,VALID,0,VALID,23.8009,VALID,53,VALID,0,
2009-05-15, 02:17:05,VALID,1001.78,VALID,0,VALID,94.8041,VALID,0,VALID,23.7814,VALID,53,VALID,0,
2009-05-15, 02:18:05,VALID,1001.77,VALID,0,VALID,94.7812,VALID,0,VALID,23.7619,VALID,53,VALID,0,
2009-05-15, 02:19:05,VALID,1001.76,VALID,0,VALID,94.7888,VALID,0,VALID,23.7637,VALID,53,VALID,0,
2009-05-15, 02:20:05,VALID,1001.75,VALID,0,VALID,94.7736,VALID,0,VALID,23.723,VALID,53,VALID,0,
2009-05-15, 02:21:05,VALID,1001.78,VALID,0,VALID,94.7888,VALID,0,VALID,23.7443,VALID,53,VALID,0,
2009-05-15, 02:22:05,VALID,1001.77,VALID,0,VALID,94.8575,VALID,0,VALID,23.7425,VALID,53,VALID,0.00195313,
2009-05-15, 02:23:05,VALID,1001.76,VALID,0,VALID,94.8651,VALID,0,VALID,23.7425,VALID,53,VALID,0,
2009-05-15, 02:24:05,VALID,1001.78,VALID,0,VALID,94.888,VALID,0,VALID,23.7619,VALID,54,VALID,0.015625,
2009-05-15, 02:25:05,VALID,1001.76,VALID,0,VALID,94.9414,VALID,0,VALID,23.8009,VALID,56,VALID,0.410547,
2009-05-15, 02:26:05,VALID,1001.74,VALID,0,VALID,94.9719,VALID,0,VALID,23.8611,VALID,57,VALID,0.404687,
2009-05-15, 02:27:05,VALID,1001.72,VALID,0,VALID,95.0253,VALID,0,VALID,23.8787,VALID,61,VALID,0.4625,
2009-05-15, 02:28:05,VALID,1001.73,VALID,0,VALID,95.0482,VALID,0,VALID,23.9177,VALID,87,VALID,0.29375,
2009-05-15, 02:29:05,VALID,1001.68,VALID,0,VALID,95.0177,VALID,0,VALID,23.8982,VALID,87,VALID,0.427734,
2009-05-15, 02:30:05,VALID,1001.66,VALID,0,VALID,95.0177,VALID,0,VALID,23.9371,VALID,77,VALID,0.464453,
2009-05-15, 02:31:05,VALID,1001.65,VALID,0,VALID,95.0177,VALID,0,VALID,23.9584,VALID,77,VALID,0.371484,
2009-05-15, 02:32:05,VALID,1001.61,VALID,0,VALID,94.9567,VALID,0,VALID,23.9177,VALID,77,VALID,0.321484,
2009-05-15, 02:33:05,VALID,1001.61,VALID,0,VALID,94.9185,VALID,0,VALID,23.8964,VALID,77,VALID,0.15,
2009-05-15, 02:34:05,VALID,1001.56,VALID,0,VALID,94.9567,VALID,0,VALID,23.8982,VALID,77,VALID,0.0300781,
2009-05-15, 02:35:05,VALID,1001.53,VALID,0,VALID,94.9643,VALID,0,VALID,23.9195,VALID,77,VALID,0.00273437,
2009-05-15, 02:36:05,VALID,1001.54,VALID,0,VALID,94.9567,VALID,0,VALID,23.9195,VALID,77,VALID,0,
2009-05-15, 02:37:05,VALID,1001.56,VALID,0,VALID,94.9796,VALID,0,VALID,23.8982,VALID,77,VALID,0,
2009-05-15, 02:38:05,VALID,1001.55,VALID,0,VALID,95.0101,VALID,0,VALID,23.9389,VALID,77,VALID,0,
2009-05-15, 02:39:05,VALID,1001.53,VALID,0,VALID,95.0482,VALID,0,VALID,23.9566,VALID,77,VALID,0,
2009-05-15, 02:40:05,VALID,1001.54,VALID,0,VALID,95.0406,VALID,0,VALID,23.9761,VALID,77,VALID,0,
2009-05-15, 02:41:05,VALID,1001.52,VALID,0,VALID,95.0711,VALID,0,VALID,23.9955,VALID,77,VALID,0,
2009-05-15, 02:42:05,VALID,1001.52,VALID,0,VALID,95.0711,VALID,0,VALID,24.0539,VALID,78,VALID,0.684375,
2009-05-15, 02:43:05,VALID,1001.5,VALID,0,VALID,95.094,VALID,0,VALID,24.0929,VALID,81,VALID,0.451953,
2009-05-15, 02:44:05,VALID,1001.52,VALID,0,VALID,95.1016,VALID,0,VALID,24.1123,VALID,80,VALID,0.578125,
2009-05-15, 02:45:05,VALID,1001.48,VALID,0,VALID,95.0864,VALID,0,VALID,24.1123,VALID,78,VALID,0.635547,
2009-05-15, 02:46:05,VALID,1001.48,VALID,0,VALID,95.0787,VALID,0,VALID,24.091,VALID,78,VALID,0.388672,
2009-05-15, 02:47:05,VALID,1001.49,VALID,0,VALID,95.0406,VALID,0,VALID,24.1123,VALID,78,VALID,0.334766,
2009-05-15, 02:48:05,VALID,1001.47,VALID,0,VALID,94.9872,VALID,0,VALID,24.0929,VALID,78,VALID,0.651953,
2009-05-15, 02:49:05,VALID,1001.46,VALID,0,VALID,95.0177,VALID,0,VALID,24.1123,VALID,78,VALID,0.682422,
2009-05-15, 02:50:05,VALID,1001.48,VALID,0,VALID,95.0406,VALID,0,VALID,24.1318,VALID,75,VALID,0.598437,
2009-05-15, 02:51:05,VALID,1001.49,VALID,0,VALID,95.0558,VALID,0,VALID,24.1707,VALID,76,VALID,0.360547,
2009-05-15, 02:52:05,VALID,1001.5,VALID,0,VALID,95.0177,VALID,0,VALID,24.1513,VALID,76,VALID,0.586328,
2009-05-15, 02:53:05,VALID,1001.51,VALID,0,VALID,94.9796,VALID,0,VALID,24.1707,VALID,75,VALID,0.287109,
2009-05-15, 02:54:05,VALID,1001.5,VALID,0,VALID,94.9643,VALID,0,VALID,24.1726,VALID,75,VALID,0.202344,
2009-05-15, 02:55:05,VALID,1001.49,VALID,0,VALID,95.0101,VALID,0,VALID,24.1513,VALID,75,VALID,0.424609,
2009-05-15, 02:56:05,VALID,1001.48,VALID,0,VALID,95.0177,VALID,0,VALID,24.1707,VALID,75,VALID,0.180469,
2009-05-15, 02:57:05,VALID,1001.47,VALID,0,VALID,95.0177,VALID,0,VALID,24.2078,VALID,55,VALID,0.369531,
2009-05-15, 02:58:05,VALID,1001.5,VALID,0,VALID,95.033,VALID,0,VALID,24.2681,VALID,35,VALID,0.445703,
2009-05-15, 02:59:05,VALID,1001.51,VALID,0,VALID,95.0406,VALID,0,VALID,24.3283,VALID,27,VALID,0.517187,
2009-05-15, 03:00:05,VALID,1001.51,VALID,0,VALID,95.033,VALID,0,VALID,24.3459,VALID,32,VALID,0.525391,
2009-05-15, 03:01:05,VALID,1001.47,VALID,0,VALID,95.0406,VALID,0,VALID,24.4062,VALID,24,VALID,0.472656,
2009-05-15, 03:02:05,VALID,1001.46,VALID,0,VALID,94.9872,VALID,0,VALID,24.4043,VALID,31,VALID,0.179297,
2009-05-15, 03:03:05,VALID,1001.46,VALID,0,VALID,94.9338,VALID,0,VALID,24.4433,VALID,36,VALID,0.271484,
2009-05-15, 03:04:05,VALID,1001.49,VALID,0,VALID,94.8728,VALID,0,VALID,24.4822,VALID,53,VALID,0.44375,
2009-05-15, 03:05:05,VALID,1001.51,VALID,0,VALID,94.8041,VALID,0,VALID,24.4822,VALID,57,VALID,0.532031,
2009-05-15, 03:06:05,VALID,1001.49,VALID,0,VALID,94.7583,VALID,0,VALID,24.5035,VALID,59,VALID,0.417188,
2009-05-15, 03:07:05,VALID,1001.52,VALID,0,VALID,94.6973,VALID,0,VALID,24.523,VALID,59,VALID,0.271875,
2009-05-15, 03:08:05,VALID,1001.55,VALID,0,VALID,94.6363,VALID,0,VALID,24.5035,VALID,72,VALID,0.525781,
2009-05-15, 03:09:05,VALID,1001.58,VALID,0,VALID,94.5523,VALID,0,VALID,24.4841,VALID,72,VALID,0.1625,
2009-05-15, 03:10:05,VALID,1001.59,VALID,0,VALID,94.5218,VALID,0,VALID,24.4628,VALID,72,VALID,0.380469,
2009-05-15, 03:11:05,VALID,1001.62,VALID,0,VALID,94.4837,VALID,0,VALID,24.4433,VALID,72,VALID,0.34375,
2009-05-15, 03:12:05,VALID,1001.63,VALID,0,VALID,94.4684,VALID,0,VALID,24.4238,VALID,72,VALID,0.493359,
2009-05-15, 03:13:05,VALID,1001.64,VALID,0,VALID,94.4532,VALID,0,VALID,24.4451,VALID,75,VALID,0.503125,
2009-05-15, 03:14:05,VALID,1001.66,VALID,0,VALID,94.4074,VALID,0,VALID,24.4043,VALID,77,VALID,0.437109,
2009-05-15, 03:15:05,VALID,1001.67,VALID,0,VALID,94.3921,VALID,0,VALID,24.3849,VALID,77,VALID,0.219922,
2009-05-15, 03:16:05,VALID,1001.65,VALID,0,VALID,94.4455,VALID,0,VALID,24.3849,VALID,76,VALID,0.500781,
2009-05-15, 03:17:05,VALID,1001.65,VALID,0,VALID,94.4455,VALID,0,VALID,24.4257,VALID,76,VALID,0.367969,
2009-05-15, 03:18:05,VALID,1001.63,VALID,0,VALID,94.4074,VALID,0,VALID,24.3849,VALID,76,VALID,0.207422,
2009-05-15, 03:19:05,VALID,1001.59,VALID,0,VALID,94.3692,VALID,0,VALID,24.3459,VALID,76,VALID,0.000390625,
2009-05-15, 03:20:05,VALID,1001.62,VALID,0,VALID,94.3616,VALID,0,VALID,24.3459,VALID,76,VALID,0.312891,
2009-05-15, 03:21:05,VALID,1001.6,VALID,0,VALID,94.3464,VALID,0,VALID,24.3459,VALID,76,VALID,0.107422,
2009-05-15, 03:22:05,VALID,1001.62,VALID,0,VALID,94.3387,VALID,0,VALID,24.307,VALID,76,VALID,0.0078125,
2009-05-15, 03:23:05,VALID,1001.63,VALID,0,VALID,94.3311,VALID,0,VALID,24.2875,VALID,76,VALID,0.235547,
2009-05-15, 03:24:05,VALID,1001.6,VALID,0,VALID,94.354,VALID,0,VALID,24.2875,VALID,76,VALID,0.0105469,
2009-05-15, 03:25:05,VALID,1001.63,VALID,0,VALID,94.3769,VALID,0,VALID,24.2681,VALID,76,VALID,0.0414063,
2009-05-15, 03:26:05,VALID,1001.65,VALID,0,VALID,94.3464,VALID,0,VALID,24.2486,VALID,76,VALID,0.176953,
2009-05-15, 03:27:05,VALID,1001.66,VALID,0,VALID,94.354,VALID,0,VALID,24.2291,VALID,76,VALID,0.124609,
2009-05-15, 03:28:05,VALID,1001.67,VALID,0,VALID,94.3006,VALID,0,VALID,24.1884,VALID,76,VALID,0.0382813,
2009-05-15, 03:29:05,VALID,1001.67,VALID,0,VALID,94.2472,VALID,0,VALID,24.1281,VALID,76,VALID,0.344922,
2009-05-15, 03:30:05,VALID,1001.69,VALID,0,VALID,94.2548,VALID,0,VALID,24.1105,VALID,76,VALID,0.257422,
2009-05-15, 03:31:05,VALID,1001.68,VALID,0,VALID,94.293,VALID,0,VALID,24.091,VALID,76,VALID,0.152344,
2009-05-15, 03:32:05,VALID,1001.71,VALID,0,VALID,94.3006,VALID,0,VALID,24.0521,VALID,76,VALID,0.0390625,
2009-05-15, 03:33:05,VALID,1001.67,VALID,0,VALID,94.3692,VALID,0,VALID,24.0521,VALID,76,VALID,0.00195313,
2009-05-15, 03:34:05,VALID,1001.7,VALID,0,VALID,94.4303,VALID,0,VALID,24.0716,VALID,76,VALID,0.325,
2009-05-15, 03:35:05,VALID,1001.7,VALID,0,VALID,94.3998,VALID,0,VALID,24.0734,VALID,76,VALID,0.0902344,
2009-05-15, 03:36:05,VALID,1001.68,VALID,0,VALID,94.4303,VALID,0,VALID,24.0734,VALID,76,VALID,0.0351563,
2009-05-15, 03:37:05,VALID,1001.71,VALID,0,VALID,94.3998,VALID,0.100563,VALID,24.0326,VALID,76,VALID,0,
2009-05-15, 03:38:05,VALID,1001.7,VALID,0,VALID,94.3845,VALID,0,VALID,23.9937,VALID,76,VALID,0,
2009-05-15, 03:39:05,VALID,1001.71,VALID,0,VALID,94.5066,VALID,0,VALID,24.0132,VALID,76,VALID,0.144922,
2009-05-15, 03:40:05,VALID,1001.72,VALID,0,VALID,94.4837,VALID,0.100563,VALID,24.0345,VALID,76,VALID,0,
2009-05-15, 03:41:04,VALID,1001.73,VALID,0,VALID,94.4684,VALID,0,VALID,23.9937,VALID,76,VALID,0.282813,
2009-05-15, 03:42:04,VALID,1001.72,VALID,0,VALID,94.4074,VALID,0,VALID,23.9566,VALID,76,VALID,0.377344,
2009-05-15, 03:43:04,VALID,1001.71,VALID,0,VALID,94.3616,VALID,0,VALID,23.9177,VALID,76,VALID,0.323047,
2009-05-15, 03:44:04,VALID,1001.75,VALID,0,VALID,94.4303,VALID,0,VALID,23.9195,VALID,76,VALID,0.28125,
2009-05-15, 03:45:04,VALID,1001.74,VALID,0,VALID,94.4913,VALID,0,VALID,23.9177,VALID,76,VALID,0.423828,
2009-05-15, 03:46:04,VALID,1001.8,VALID,0,VALID,94.4989,VALID,0,VALID,23.9195,VALID,76,VALID,0.391016,
2009-05-15, 03:47:04,VALID,1001.79,VALID,0,VALID,94.5676,VALID,0,VALID,23.9371,VALID,76,VALID,0.401172,
2009-05-15, 03:48:04,VALID,1001.84,VALID,0,VALID,94.56,VALID,0,VALID,23.9177,VALID,76,VALID,0.419922,
2009-05-15, 03:49:04,VALID,1001.83,VALID,0,VALID,94.5676,VALID,0,VALID,23.9389,VALID,76,VALID,0.296094,